Point Hope, AK

9:08 AM AKDT on October 19, 2017 (GMT -0800)
Point Hope

Weather History for PAPO - October, 2013

Change the Weather History Date:

Saturday, October 12, 2013

  Actual Average Record
Temperature  
Mean Temperature 33 °F -  
Max Temperature 33 °F 28 °F 42 °F (2016)
Min Temperature 33 °F 21 °F 6 °F (1996)
Degree Days  
Heating Degree Days 32    
Moisture  
Dew Point 27 °F    
Average Humidity 78    
Maximum Humidity 87    
Minimum Humidity 70    
Precipitation  
Precipitation 0.00 in - - ()
Sea Level Pressure  
Sea Level Pressure 29.70 in    
Wind  
Wind Speed 25 mph (NNE)    
Max Wind Speed 30 mph    
Max Gust Speed 34 mph    
Visibility 10 miles    
Events      
Averages and records for this station are not official NWS values.
T = Trace of Precipitation, MM = Missing Value Source: NWS Daily Summary

Daily Weather History Graph

Daily Weather History Graph

Search for Another Location

Airport or City:

Trip Planner

Search our weather history database for the weather conditions in past years. The results will help you decide how hot, cold, wet, or windy it might be!

Date:

Astronomy

Oct. 12, 2013 Rise Set
Actual Time 10:03 AM AKDT 7:42 PM AKDT
Civil Twilight 9:05 AM AKDT 8:39 PM AKDT
Nautical Twilight 8:00 AM AKDT 9:44 PM AKDT
Astronomical Twilight 6:51 AM AKDT 10:52 PM AKDT
Moon 6:40 PM AKDT (10/12) 12:13 AM AKDT (10/12)
Length of Visible Light 11h 34m
Length of Day
9h 39m
First Quarter, 60% of the Moon is Illuminated
Oct 12
First Quarter
Oct 18
Full
Oct 26
Last Quarter
Nov 3
New
Nov 9
First Quarter

Hourly Weather History & Observations

Time (AKDT) Temp. Windchill Dew Point Humidity Pressure Visibility Wind Dir Wind Speed Gust Speed Precip Events Conditions
12:16 AM 33.8 °F 20.3 °F 30.2 °F 87% 29.63 in 10.0 mi North 28.8 mph - N/A   Overcast
12:36 AM 33.8 °F 20.5 °F 30.2 °F 87% 29.63 in 10.0 mi North 27.6 mph 32.2 mph N/A   Overcast
12:56 AM 33.8 °F 20.8 °F 30.2 °F 87% 29.64 in 10.0 mi North 26.5 mph 29.9 mph N/A   Overcast
1:16 AM 33.8 °F 20.5 °F 28.4 °F 81% 29.64 in 10.0 mi North 27.6 mph 33.4 mph N/A   Overcast
1:56 AM 33.8 °F 21.0 °F 30.2 °F 87% 29.65 in 9.0 mi North 25.3 mph 29.9 mph N/A   Mostly Cloudy
2:16 AM 33.8 °F 21.6 °F 30.2 °F 87% 29.66 in 10.0 mi North 23.0 mph - N/A   Overcast
2:36 AM 33.8 °F 20.8 °F 30.2 °F 87% 29.66 in 10.0 mi North 26.5 mph - N/A   Overcast
2:56 AM 33.8 °F 21.3 °F 28.4 °F 81% 29.67 in 10.0 mi North 24.2 mph - N/A   Overcast
3:16 AM 33.8 °F 20.8 °F 28.4 °F 81% 29.66 in 10.0 mi North 26.5 mph - N/A   Overcast
3:36 AM 33.8 °F 21.6 °F 30.2 °F 87% 29.67 in 9.0 mi North 23.0 mph 29.9 mph N/A   Overcast
3:56 AM 33.8 °F 21.3 °F 28.4 °F 81% 29.67 in 10.0 mi North 24.2 mph - N/A   Mostly Cloudy
4:16 AM 33.8 °F 21.6 °F 30.2 °F 87% 29.68 in 9.0 mi North 23.0 mph - N/A   Overcast
4:36 AM 33.8 °F 21.9 °F 28.4 °F 81% 29.67 in 10.0 mi North 21.9 mph - N/A   Overcast
4:56 AM 33.8 °F 21.3 °F 28.4 °F 81% 29.67 in 10.0 mi North 24.2 mph - N/A   Overcast
5:16 AM 33.8 °F 21.6 °F 30.2 °F 87% 29.67 in 10.0 mi North 23.0 mph 28.8 mph N/A   Overcast
5:36 AM 33.8 °F 20.5 °F 30.2 °F 87% 29.68 in 9.0 mi NNE 27.6 mph 31.1 mph N/A   Mostly Cloudy
5:56 AM 33.8 °F 21.0 °F 28.4 °F 81% 29.68 in 10.0 mi NNE 25.3 mph 31.1 mph N/A   Mostly Cloudy
6:16 AM 33.8 °F 20.8 °F 28.4 °F 81% 29.69 in 10.0 mi North 26.5 mph - N/A   Overcast
6:36 AM 33.8 °F 21.9 °F 28.4 °F 81% 29.69 in 10.0 mi North 21.9 mph - N/A   Overcast
6:56 AM 33.8 °F 21.3 °F 28.4 °F 81% 29.69 in 10.0 mi North 24.2 mph - N/A   Overcast
7:16 AM 33.8 °F 20.8 °F 28.4 °F 81% 29.70 in 10.0 mi North 26.5 mph - N/A   Overcast
7:36 AM 33.8 °F 21.0 °F 26.6 °F 75% 29.70 in 10.0 mi NNE 25.3 mph - N/A   Overcast
7:56 AM 33.8 °F 20.8 °F 26.6 °F 75% 29.70 in 10.0 mi North 26.5 mph - N/A   Overcast
8:16 AM 33.8 °F 20.5 °F 26.6 °F 75% 29.70 in 10.0 mi North 27.6 mph - N/A   Overcast
8:36 AM 33.8 °F 21.0 °F 26.6 °F 75% 29.70 in 10.0 mi North 25.3 mph 29.9 mph N/A   Overcast
8:56 AM 33.8 °F 20.5 °F 26.6 °F 75% 29.71 in 10.0 mi North 27.6 mph - N/A   Overcast
9:16 AM 33.8 °F 20.8 °F 26.6 °F 75% 29.70 in 10.0 mi North 26.5 mph - N/A   Overcast
9:36 AM 33.8 °F 21.0 °F 26.6 °F 75% 29.71 in 10.0 mi NNE 25.3 mph 31.1 mph N/A   Overcast
9:56 AM 33.8 °F 21.0 °F 26.6 °F 75% 29.71 in 10.0 mi NNE 25.3 mph 29.9 mph N/A   Overcast
10:16 AM 33.8 °F 21.3 °F 26.6 °F 75% 29.71 in 10.0 mi NNE 24.2 mph - N/A   Overcast
10:56 AM 33.8 °F 22.5 °F 26.6 °F 75% 29.72 in 10.0 mi NNE 19.6 mph - N/A   Overcast
11:36 AM 33.8 °F 22.2 °F 26.6 °F 75% 29.72 in 10.0 mi NNE 20.7 mph 24.2 mph N/A   Overcast
11:56 AM 33.8 °F 21.9 °F 26.6 °F 75% 29.73 in 10.0 mi NNE 21.9 mph 26.5 mph N/A   Overcast
12:16 PM 33.8 °F 21.9 °F 26.6 °F 75% 29.73 in 10.0 mi NNE 21.9 mph - N/A   Overcast
12:36 PM 33.8 °F 21.9 °F 26.6 °F 75% 29.73 in 10.0 mi NNE 21.9 mph 27.6 mph N/A   Overcast
1:16 PM 33.8 °F 21.6 °F 26.6 °F 75% 29.74 in 10.0 mi NNE 23.0 mph - N/A   Overcast
1:36 PM 33.8 °F 21.9 °F 26.6 °F 75% 29.74 in 10.0 mi NNE 21.9 mph - N/A   Overcast
1:56 PM 33.8 °F 21.6 °F 26.6 °F 75% 29.73 in 10.0 mi NNE 23.0 mph - N/A   Overcast
2:16 PM 33.8 °F 22.5 °F 26.6 °F 75% 29.73 in 5.0 mi NNE 19.6 mph - N/A   Overcast
2:36 PM 33.8 °F 22.2 °F 26.6 °F 75% 29.73 in 10.0 mi NNE 20.7 mph 26.5 mph N/A   Overcast
2:56 PM 33.8 °F 22.8 °F 26.6 °F 75% 29.72 in 10.0 mi NNE 18.4 mph 24.2 mph N/A   Mostly Cloudy
3:16 PM 33.8 °F 21.6 °F 26.6 °F 75% 29.72 in 10.0 mi NNE 23.0 mph 28.8 mph N/A   Scattered Clouds
3:36 PM 33.8 °F 21.6 °F 26.6 °F 75% 29.72 in 10.0 mi NNE 23.0 mph 27.6 mph N/A   Mostly Cloudy
3:56 PM 33.8 °F 21.3 °F 26.6 °F 75% 29.71 in 10.0 mi NNE 24.2 mph 28.8 mph N/A   Overcast
4:16 PM 33.8 °F 21.6 °F 26.6 °F 75% 29.71 in 10.0 mi NNE 23.0 mph - N/A   Overcast
4:36 PM 33.8 °F 21.9 °F 26.6 °F 75% 29.71 in 10.0 mi NNE 21.9 mph 27.6 mph N/A   Overcast
5:16 PM 33.8 °F 21.6 °F 26.6 °F 75% 29.71 in 10.0 mi NNE 23.0 mph 28.8 mph N/A   Overcast
5:36 PM 33.8 °F 21.0 °F 26.6 °F 75% 29.70 in 10.0 mi NNE 25.3 mph 28.8 mph N/A   Overcast
5:56 PM 33.8 °F 21.9 °F 24.8 °F 70% 29.70 in 10.0 mi NNE 21.9 mph 28.8 mph N/A   Overcast
6:16 PM 33.8 °F 21.9 °F 24.8 °F 70% 29.71 in 10.0 mi NE 21.9 mph 32.2 mph N/A   Overcast
6:36 PM 33.8 °F 21.3 °F 24.8 °F 70% 29.71 in 10.0 mi NE 24.2 mph 31.1 mph N/A   Overcast
6:56 PM 33.8 °F 22.5 °F 26.6 °F 75% 29.71 in 10.0 mi NE 19.6 mph 28.8 mph N/A   Overcast
7:16 PM 33.8 °F 21.0 °F 24.8 °F 70% 29.71 in 10.0 mi NNE 25.3 mph 29.9 mph N/A   Overcast
8:16 PM 33.8 °F 20.5 °F 24.8 °F 70% 29.70 in 10.0 mi NNE 27.6 mph 33.4 mph N/A   Mostly Cloudy
8:36 PM 33.8 °F 21.3 °F 26.6 °F 75% 29.70 in 10.0 mi NNE 24.2 mph - N/A   Mostly Cloudy
8:56 PM 33.8 °F 21.0 °F 26.6 °F 75% 29.70 in 10.0 mi NNE 25.3 mph 34.5 mph N/A   Overcast
9:16 PM 33.8 °F 21.3 °F 26.6 °F 75% 29.70 in 10.0 mi NNE 24.2 mph 33.4 mph N/A   Overcast
9:36 PM 33.8 °F 20.8 °F 26.6 °F 75% 29.70 in 10.0 mi NE 26.5 mph 34.5 mph N/A   Overcast
9:56 PM 33.8 °F 20.5 °F 26.6 °F 75% 29.70 in 10.0 mi NNE 27.6 mph 33.4 mph N/A   Overcast
10:16 PM 33.8 °F 20.1 °F 26.6 °F 75% 29.69 in 10.0 mi NNE 29.9 mph 34.5 mph N/A   Overcast
10:36 PM 33.8 °F 20.8 °F 26.6 °F 75% 29.69 in 10.0 mi NNE 26.5 mph 33.4 mph N/A   Overcast
10:56 PM 33.8 °F 21.3 °F 26.6 °F 75% 29.69 in 10.0 mi NNE 24.2 mph 34.5 mph N/A   Overcast
11:16 PM 33.8 °F 20.8 °F 26.6 °F 75% 29.69 in 10.0 mi NNE 26.5 mph 32.2 mph N/A   Overcast
11:56 PM 33.8 °F 20.3 °F 26.6 °F 75% 29.69 in 8.0 mi NNE 28.8 mph 33.4 mph N/A   Overcast